Weather History for KSEE - February, 2013

Change the Weather History Date:

Thursday, February 14, 2013

  Actual Average Record
Temperature  
Mean Temperature 56 °F -  
Max Temperature 75 °F 67 °F 89 °F (2014)
Min Temperature 37 °F 42 °F 35 °F (1999)
Degree Days  
Heating Degree Days 9    
Growing Degree Days 6 (Base 50)    
Moisture  
Dew Point 40 °F    
Average Humidity 84    
Maximum Humidity 100    
Minimum Humidity 29    
Precipitation  
Precipitation 0.00 in - - ()
Sea Level Pressure  
Sea Level Pressure 30.16 in    
Wind  
Wind Speed 1 mph (WNW)    
Max Wind Speed 12 mph    
Max Gust Speed -    
Visibility 11 miles    
Events      
Averages and records for this station are not official NWS values.
T = Trace of Precipitation, MM = Missing Value Source: NWS Daily Summary

Daily Weather History Graph

Daily Weather History Graph

Search for Another Location

Airport or City:

Trip Planner

Search our weather history database for the weather conditions in past years. The results will help you decide how hot, cold, wet, or windy it might be!

Date:

Astronomy

Feb. 14, 2013 Rise Set
Actual Time 6:31 AM PST 5:32 PM PST
Civil Twilight 6:06 AM PST 5:58 PM PST
Nautical Twilight 5:37 AM PST 6:27 PM PST
Astronomical Twilight 5:08 AM PST 6:55 PM PST
Moon 8:54 AM PST (2/14) 10:19 PM PST (2/14)
Length of Visible Light 11h 51m
Length of Day
11h 01m
Waxing Crescent, 22% of the Moon is Illuminated
Feb 14
Waxing Crescent
Feb 17
First Quarter
Feb 25
Full
Mar 4
Last Quarter
Mar 11
New

Hourly Weather History & Observations

Time (PST) Temp. Windchill Dew Point Humidity Pressure Visibility Wind Dir Wind Speed Gust Speed Precip Events Conditions
12:15 AM 41.0 °F 39.0 °F 41.0 °F 100% 30.19 in 8.0 mi WNW 3.5 mph - N/A   Clear
12:35 AM 42.8 °F - 42.8 °F 100% 30.19 in 9.0 mi Calm Calm - N/A   Clear
12:55 AM 41.0 °F - 41.0 °F 100% 30.19 in 10.0 mi Calm Calm - N/A   Clear
1:15 AM 41.0 °F - 41.0 °F 100% 30.19 in 10.0 mi Calm Calm - N/A   Clear
1:35 AM 41.0 °F - 41.0 °F 100% 30.19 in 10.0 mi Calm Calm - N/A   Clear
1:55 AM 41.0 °F - 41.0 °F 100% 30.18 in 9.0 mi Calm Calm - N/A   Clear
2:15 AM 39.2 °F - 39.2 °F 100% 30.17 in 9.0 mi Calm Calm - N/A   Clear
2:35 AM 39.2 °F - 39.2 °F 100% 30.16 in 10.0 mi Calm Calm - N/A   Clear
2:55 AM 39.2 °F - 39.2 °F 100% 30.15 in 9.0 mi Calm Calm - N/A   Clear
3:55 AM 37.4 °F - 37.4 °F 100% 30.15 in 10.0 mi Calm Calm - N/A   Clear
4:15 AM 37.4 °F - 37.4 °F 100% 30.16 in 10.0 mi Calm Calm - N/A   Clear
4:35 AM 37.4 °F - 37.4 °F 100% 30.16 in 10.0 mi Calm Calm - N/A   Clear
4:55 AM 37.4 °F - 37.4 °F 100% 30.15 in 8.0 mi Calm Calm - N/A   Clear
5:15 AM 37.4 °F - 37.4 °F 100% 30.15 in 10.0 mi Calm Calm - N/A   Clear
8:47 AM 48.2 °F - 39.2 °F 71% 30.20 in 20.0 mi Calm Calm - N/A   Clear
12:47 PM 73.4 °F - 39.2 °F 29% 30.09 in 20.0 mi WSW 8.1 mph - N/A   Clear
1:47 PM 75.2 °F - 41.0 °F 29% 30.06 in 20.0 mi WSW 11.5 mph - N/A   Scattered Clouds
8:15 PM 53.6 °F - 41.0 °F 62% 30.14 in 10.0 mi WNW 3.5 mph - N/A   Clear
8:35 PM 51.8 °F - 41.0 °F 67% 30.14 in 10.0 mi WNW 3.5 mph - N/A   Clear
8:55 PM 51.8 °F - 41.0 °F 67% 30.15 in 10.0 mi Calm Calm - N/A   Clear
9:15 PM 50.0 °F - 41.0 °F 71% 30.15 in 10.0 mi Calm Calm - N/A   Clear
9:35 PM 50.0 °F - 41.0 °F 71% 30.16 in 10.0 mi North 3.5 mph - N/A   Clear
9:55 PM 50.0 °F - 42.8 °F 76% 30.16 in 7.0 mi WNW 4.6 mph - N/A   Clear
10:15 PM 48.2 °F - 42.8 °F 82% 30.16 in 10.0 mi Calm Calm - N/A   Clear
10:35 PM 46.4 °F - 42.8 °F 87% 30.16 in 10.0 mi Calm Calm - N/A   Clear
10:55 PM 46.4 °F - 42.8 °F 87% 30.16 in 10.0 mi Calm Calm - N/A   Clear
11:15 PM 46.4 °F - 42.8 °F 87% 30.16 in 10.0 mi Calm Calm - N/A   Clear
11:35 PM 46.4 °F - 41.0 °F 81% 30.15 in 10.0 mi Calm Calm - N/A   Clear
11:55 PM 46.4 °F - 41.0 °F 81% 30.16 in 10.0 mi Calm Calm - N/A   Clear